Regional Weather Roundup
Issued by NWS Northern Indiana

Home | Current Version | Previous Version | Text Only | Print | Product List | Glossary On
Versions: 1 2 3 4 5 6 7 8 9 10 11 12 13 14 15 16 17 18 19 20 21 22 23 24 25 26 27 28 29 30 31 32 33 34 35 36 37 38 39 40 41 42 43 44 45 46 47 48 49 50
000
ASUS43 KIWX 281310
RWRIWX

KIWX WEATHER ROUNDUP
NATIONAL WEATHER SERVICE NORTHERN INDIANA
900 AM EDT THU AUG 28 2014

NOTE: "FAIR" INDICATES FEW OR NO CLOUDS BELOW 12,000 FEET WITH NO
SIGNIFICANT WEATHER AND/OR OBSTRUCTIONS TO VISIBILITY.

* THESE STATIONS ARE NOT UNDER NWS QUALITY CONTROL. THEY ALSO MAY NOT
  REPORT WEATHER SUCH AS PRECIPITATION OR FOG.

INZ001>027-281400-
NORTHERN INDIANA

CITY           SKY/WX    TMP DP  RH WIND       PRES   REMARKS
GARY*          PTSUNNY   66  57  72 VRB5      30.15R
VALPARAISO     PTSUNNY   62  57  83 E8        30.15S
MICHIGAN CITY* CLOUDY    59  55  88 NE3       30.15S
LAPORTE*       CLOUDY    60  56  84 E5        30.16R
KNOX*          SUNNY     61  56  83 NE3       30.14R
SOUTH BEND     SUNNY     62  55  77 VRB5      30.15S
GOSHEN         SUNNY     62  57  83 E8        30.14S
MONTICELLO*    SUNNY     64  61  91 NE6       30.12S
LOGANSPORT*    SUNNY     63  59  88 NE5       30.13S
ROCHESTER*     SUNNY     64  61  88 CALM      30.14S
WARSAW*        SUNNY     63  61  94 E3        30.14S
ANGOLA*        MOSUNNY   63  57  82 E9        30.16R
FORT WAYNE     MOSUNNY   65  61  87 E6        30.14S
HUNTINGTON*    SUNNY     63  61  94 E5        30.14R
PERU/GRISSOM   SUNNY     64  64 100 NE6       30.13R
MARION*        PTSUNNY   65  61  85 E6        30.13R

$$
INZ028>050-281400-
CENTRAL INDIANA

CITY           SKY/WX    TMP DP  RH WIND       PRES   REMARKS
LAFAYETTE      CLOUDY    65  62  90 NE7       30.11S
KOKOMO*        MOSUNNY   64  61  88 E5        30.13S
MUNCIE*        MOSUNNY   67  63  87 E8        30.12S
INDIANAPOLIS   PTSUNNY   69  63  81 NE6       30.09R

$$
MIZ043>046-050>051-056>058-064>065-071>073-077>080-281400-
SOUTHWEST LOWER MICHIGAN

CITY           SKY/WX    TMP DP  RH WIND       PRES   REMARKS
BATTLE CREEK   CLOUDY    59  54  83 NE7       30.18R
BENTON HARBOR  SUNNY     60  54  80 E7        30.15S
COLDWATER*     CLOUDY    62  59  90 NE6       30.16S
HILLSDALE*     CLOUDY    63  61  94 E5        30.17R
HOLLAND        SUNNY     60  52  74 E7        30.18S
GRAND RAPIDS   MOSUNNY   59  53  80 E9        30.19S
KALAMAZOO      CLOUDY    58  54  86 NE6       30.18S
STURGIS*       PTSUNNY   59  57  94 NE3       30.15S
THREE RIVERS*  FAIR      60  57  90 NE6       30.17R

$$
OHZ001>008-015>018-024>025-281400-
NORTHWEST OHIO

CITY           SKY/WX    TMP DP  RH WIND       PRES   REMARKS
WAUSEON*       CLOUDY    63  57  82 VRB6      30.16S
DEFIANCE       CLOUDY    63  58  83 NE7       30.16R
FINDLAY        CLOUDY    69  61  75 NE6       30.14R
TOLEDO EXPRESS PTSUNNY   66  57  72 NE7       30.15S
TOLEDO METCALF MOSUNNY   68  56  65 NE8       30.16S
LIMA           PTSUNNY   68  64  87 E6        30.15R

$$
&&


USA.gov is the U.S. government's official web portal to all federal, state and local government web resources and services.